Location: Black River Observatory
(43.1000°N, 82.6200°W)
Time: 08:28:24
(UTC-04:00)

Daily predictions for brighter satellites

Satellite Brightness Start Highest point End
(mag) Time Altitude Azimuth Time Altitude Azimuth Time Altitude Azimuth
Sich 1 Rocket 4.0 21:19:37 10° SSE 21:24:00 46° E 21:28:24 10° NNE
Cosmos 1408 3.9 21:22:49 10° SE 21:25:43 23° E 21:28:38 10° NE
COSMOS 2406 3.9 21:24:05 10° NNW 21:29:44 58° WSW 21:35:18 10° S
Cosmos 1833 Rocket 4.4 21:26:44 10° N 21:30:36 19° NE 21:34:28 10° E
SPOT 5 3.9 21:26:17 10° SE 21:31:03 35° ENE 21:35:53 10° N
Cosmos 2278 Rocket 2.6 21:30:36 10° S 21:35:53 42° ESE 21:41:12 10° NE
Cosmos 1844 Rocket 2.7 21:30:36 10° SSW 21:36:15 86° ESE 21:41:56 10° NNE
Cosmos 1825 3.0 21:32:54 10° SSE 21:36:19 32° E 21:39:45 10° NNE
Cosmos 1975 Rocket 4.1 21:33:07 10° NNE 21:36:56 29° ENE 21:40:43 10° SE
Coronas F rocket 3.3 21:34:53 10° SW 21:37:19 32° WNW 21:39:46 10° N
Cosmos 676 Rocket 4.0 21:32:11 10° NNW 21:37:24 71° ENE 21:42:37 10° SSE
Meteor 2-10 Rocket 4.5 21:32:26 10° NNW 21:38:07 57° W 21:43:37 10° S
Cosmos 2084 3.3 21:34:35 10° SSW 21:38:20 51° ESE 21:42:04 10° NE
Cosmos 1174 3.1 21:35:10 10° NNW 21:38:26 86° NE 21:41:24 10° SSE
BREEZE-M DEB (TANK) 3.6 21:39:01 10° W 21:40:44 22° SSW 21:43:15 10° SSE
Cosmos 1844 3.7 21:35:36 10° SSW 21:41:20 71° ESE 21:47:07 10° NNE
Cosmos 1954 Rocket 4.2 21:36:12 10° NNW 21:41:22 60° ENE 21:46:32 10° SSE
Cosmos 2056 Rocket 4.2 21:38:17 10° SW 21:43:21 58° WNW 21:48:25 10° NNE
Cosmos 2341 Rocket 4.3 21:39:28 10° SSE 21:45:28 49° E 21:51:27 10° NNE
Cosmos 1378 Rocket 3.6 21:43:27 10° N 21:47:44 58° E 21:51:59 10° SSE
Cosmos 1908 Rocket 3.6 21:43:25 10° S 21:47:46 65° E 21:52:11 10° NNE
COS B Rocket 3.5 21:44:06 10° N 21:48:03 49° E 21:51:33 10° SSE
Cosmos 1733 Rocket 3.9 21:44:35 10° SSW 21:48:53 53° W 21:53:12 10° N
Intercosmos 25 4.4 21:47:58 12° SE 21:50:13 20° E 21:52:38 10° NE
Cosmos 2082 Rocket 3.2 21:49:25 10° N 21:54:31 32° NE 21:58:57 13° ESE
SL-27 R/B 4.5 21:54:13 10° NW 21:57:22 28° W 22:00:27 10° SSW
Nimbus 7 Rocket 4.5 21:51:49 10° NNE 21:57:41 60° ESE 22:03:35 10° S
deb Chang Zheng 4 3.6 21:53:40 10° NNE 21:58:05 68° ESE 22:02:30 10° S
Timation 2 Rocket 4.1 21:53:19 10° NNW 21:59:14 56° ENE 22:04:13 15° SE
GPS 2-05 Rocket1 4.2 22:02:51 10° SW 22:05:55 24° S 22:07:26 19° SE
EO 1 Delta rocket 4.2 22:00:09 10° N 22:06:19 80° E 22:11:18 10° S
USA 245 4.2 22:05:04 18° ESE 22:07:09 32° ENE 22:10:57 10° N
Cosmos 2154 Rocket 4.0 22:04:10 10° S 22:10:23 86° W 22:16:38 10° N
Cosmos 2297 4.1 22:06:50 10° S 22:12:10 42° ESE 22:17:32 10° NE
BREEZE-M DEB (TANK) 3.9 22:10:47 10° W 22:13:28 49° N 22:19:59 10° ENE
Envisat 3.2 22:09:38 10° S 22:14:42 71° WSW 22:19:47 10° NNW
Cosmos 1862 3.7 22:12:14 10° SSW 22:16:18 69° W 22:20:23 10° N
H-2A R/B 2.4 22:12:45 10° S 22:17:01 64° WSW 22:21:13 10° NNW
CZ-3C R/B 4.2 22:02:55 10° SW 22:18:38 18° SSW 22:23:56 12° SSE
Cosmos 1606 3.9 22:16:41 10° NNW 22:20:26 43° W 22:24:08 10° SSW
Cosmos 489 Rocket 4.5 22:14:22 10° NNW 22:20:37 89° WSW 22:25:48 15° SSE
COSMOS 2487 3.0 22:17:10 10° NNW 22:20:44 58° WSW 22:23:26 16° S
APEX 3.6 22:19:01 10° S 22:22:51 59° ESE 22:27:54 10° NNE
Cosmos 614 Rocket 4.0 22:18:30 10° NNW 22:23:34 62° ENE 22:26:48 22° SE
Cosmos 1420 Rocket 3.9 22:21:31 10° SSW 22:26:46 79° ESE 22:32:00 10° NNE
ERS-1 Rocket 4.4 22:24:54 10° SSW 22:29:28 34° W 22:34:04 10° NNW
MetOp-B 4.1 22:25:26 15° SSE 22:29:53 88° WSW 22:35:16 10° NNW
BREEZE-M DEB (TANK) 3.5 22:30:02 10° WNW 22:31:48 23° N 22:34:13 10° NE
Gbstr 26 Del rocket 4.4 22:27:10 10° NW 22:32:11 38° NNE 22:35:56 12° E
CZ-4 SHROUD 3.3 22:32:36 26° S 22:34:10 70° WSW 22:37:16 10° NNW
PSLV R/B 3.4 22:33:19 26° S 22:34:48 60° W 22:37:43 10° NNW
Cosmos 1140 Rocket 3.7 22:30:46 10° NNW 22:35:53 68° WSW 22:39:35 19° S
Cosmos 2366 rocket 4.2 22:32:20 18° SSE 22:36:54 53° E 22:43:02 10° NNE
Okean 3 4.3 22:33:20 10° NNW 22:37:29 49° W 22:41:10 12° SSW
USA 234 4.1 22:36:01 10° ENE 22:41:19 26° SE 22:43:01 23° SSE
CZ-4C R/B 4.2 22:41:21 29° ESE 22:42:37 36° ENE 22:46:26 10° N
Landsat 7 4.3 22:40:33 27° SE 22:42:40 44° ENE 22:47:11 10° N
H-2A R/B 2.7 22:42:13 25° ESE 22:44:48 42° ENE 22:49:45 10° N
CZ-4B R/B 3.3 22:41:46 10° NNE 22:46:44 73° ESE 22:50:13 19° S
ARGOS 3.1 22:46:31 25° SSE 22:49:46 86° ENE 22:55:09 10° NNW
Okean 2 Rocket 3.8 22:45:55 10° SSW 22:50:15 54° W 22:54:35 10° N
SL-08 RB Rocket 3.7 22:49:27 31° SSE 22:51:38 76° ENE 22:56:18 10° N
Cosmos 1242 Rocket 3.8 22:52:32 10° NNW 22:55:59 39° W 22:58:03 20° SSW
YAOGAN 6 3.6 22:56:00 22° SSW 22:57:47 39° W 23:01:07 10° NNW
Terra 2.4 22:56:47 32° ESE 22:58:23 44° ENE 23:02:54 10° N
OAO 3 Rocket 4.3 22:54:38 10° SW 22:58:14 27° S 22:58:14 27° S
ISS -1.7 22:56:26 10° W 22:59:29 36° NNW 23:02:33 10° NE
SPOT 1/Viking Rocket 3.8 22:57:07 24° S 23:00:18 67° WSW 23:05:31 10° NNW
NOSS 8 (F) 4.4 23:01:46 56° SSE 23:02:14 64° ESE 23:05:54 10° NE
Meteor 1-20 Rocket 4.3 23:01:01 32° SSE 23:03:24 55° E 23:08:47 10° NNE
Cosmos 2218 Rocket 4.1 23:00:21 14° S 23:05:54 83° W 23:12:20 10° N
Spot 4 4.3 23:11:30 37° ESE 23:12:48 47° ENE 23:17:27 10° N
Cosmos 1833 Rocket 2.7 23:09:35 10° NNW 23:15:14 80° WSW 23:17:28 38° SSE
AVUM R/B 3.2 23:11:44 10° NNW 23:15:16 88° WSW 23:15:23 84° SSE
CARTOSAT-1 3.5 23:15:44 52° SE 23:16:36 69° ENE 23:20:55 10° N
Okean 1 3.3 23:14:08 10° N 23:18:11 63° E 23:18:36 59° ESE
Meteor 1-25 Rocket 4.2 23:15:14 27° S 23:18:35 87° E 23:24:26 10° N
Cosmos 1727 Rocket 4.0 23:13:06 10° N 23:19:18 82° W 23:22:23 32° S
DELTA 2 DEB (DPAF) 4.1 23:18:43 47° S 23:19:58 82° WSW 23:24:28 10° NNW
Meteor 2-19 Rocket 4.3 23:16:38 29° S 23:19:58 83° E 23:26:06 10° N
Cosmos 2278 Rocket 4.0 23:15:04 10° WSW 23:20:05 31° NW 23:25:07 10° N
Lacrosse 5 2.8 23:25:04 30° E 23:25:04 30° E 23:28:12 10° ENE
Cosmos 1536 Rocket 4.1 23:23:22 10° NNW 23:27:46 55° W 23:29:10 38° SSW
SAR-Lupe-2 4.0 23:28:49 49° NE 23:28:49 49° NE 23:32:01 10° N
USA 229 DEB 4.0 23:23:30 10° NW 23:30:31 64° WSW 23:33:32 36° S
USA 229 3.9 23:23:35 10° NW 23:30:37 65° WSW 23:33:38 36° S
Iridium 4 Rocket 4.4 23:28:28 10° NNE 23:34:01 41° E 23:35:10 37° ESE
ASTEX 1 3.4 23:32:29 10° N 23:37:26 68° E 23:38:12 58° SE
BREEZE-M DEB (TANK) 3.8 23:30:21 10° WNW 23:37:40 32° WSW 23:38:18 30° SW
Cosmos 2082 Rocket 3.1 23:33:23 10° NW 23:38:41 41° WSW 23:40:49 29° SSW
Cosmos 1812 3.0 23:35:18 10° NNW 23:39:07 58° W 23:39:21 57° WSW
Cosmos 1331 Rocket 4.0 23:43:57 38° SSW 23:45:58 76° WNW 23:51:10 10° NNE
DMSP B5D2-2 4.0 23:41:04 10° NNE 23:46:18 81° WNW 23:48:00 44° SSW
Meteor 2-4 Rocket 4.2 23:42:04 10° N 23:47:15 43° ENE 23:48:06 40° E
NOSS 3-1 (A) 4.2 23:41:27 10° NNW 23:48:54 63° NE 23:52:37 34° ESE
Genesis I 4.5 23:52:50 32° NE 23:52:50 32° NE 23:55:11 10° NE
Cosmos 1821 Rocket 4.0 23:52:03 50° SE 23:53:26 63° E 23:59:34 10° NNE
Meteor 1-13 Rocket 4.3 23:47:33 10° N 23:53:32 90° NW 23:55:01 54° S
Cosmos 1110 Rocket 4.5 23:50:53 26° SW 23:53:42 58° WNW 23:58:50 10° NNE
IGS 5A 3.9 23:54:28 50° WSW 23:54:41 51° W 23:58:46 10° NNW
